TimeCST,TemperatureF,Dew PointF,Humidity,Sea Level PressureIn,VisibilityMPH,Wind Direction,Wind SpeedMPH,Gust SpeedMPH,PrecipitationIn,Events,Conditions,WindDirDegrees,DateUTC
12:53 AM,7.0,1.0,77,30.09,10.0,Calm,Calm,-,N/A,,Clear,0,2013-02-26 06:53:00
1:53 AM,6.1,-0.0,76,30.12,10.0,Calm,Calm,-,N/A,,Clear,0,2013-02-26 07:53:00
2:53 AM,1.9,-2.0,83,30.12,10.0,North,3.5,-,N/A,,Clear,350,2013-02-26 08:53:00
3:53 AM,3.0,-2.9,76,30.10,10.0,Calm,Calm,-,N/A,,Clear,0,2013-02-26 09:53:00
4:53 AM,1.9,-2.9,80,30.12,10.0,Calm,Calm,-,N/A,,Clear,0,2013-02-26 10:53:00
5:53 AM,-0.0,-5.1,79,30.12,10.0,NNW,3.5,-,N/A,,Clear,330,2013-02-26 11:53:00
6:53 AM,1.9,-4.0,76,30.13,10.0,Calm,Calm,-,N/A,,Clear,0,2013-02-26 12:53:00
7:53 AM,1.9,-4.0,76,30.13,10.0,Calm,Calm,-,N/A,,Clear,0,2013-02-26 13:53:00
8:53 AM,9.0,5.0,84,30.13,7.0,Calm,Calm,-,N/A,,Clear,0,2013-02-26 14:53:00
9:53 AM,17.1,12.9,84,30.11,6.0,Calm,Calm,-,N/A,,Clear,0,2013-02-26 15:53:00
10:53 AM,25.0,18.0,75,30.10,10.0,Calm,Calm,-,N/A,,Clear,0,2013-02-26 16:53:00
11:53 AM,34.0,19.9,56,30.09,10.0,ESE,5.8,-,N/A,,Clear,120,2013-02-26 17:53:00
12:53 PM,37.9,19.0,47,30.07,10.0,ESE,4.6,-,N/A,,Clear,110,2013-02-26 18:53:00
1:53 PM,41.0,19.0,41,30.05,10.0,NNW,3.5,-,N/A,,Clear,340,2013-02-26 19:53:00
2:53 PM,39.0,19.9,46,30.05,10.0,ESE,3.5,-,N/A,,Clear,120,2013-02-26 20:53:00
3:53 PM,39.0,19.9,46,30.04,10.0,ESE,5.8,-,N/A,,Clear,120,2013-02-26 21:53:00
4:53 PM,43.0,17.1,35,30.04,10.0,Calm,Calm,-,N/A,,Clear,0,2013-02-26 22:53:00
5:53 PM,35.1,19.9,54,30.06,10.0,Calm,Calm,-,N/A,,Clear,0,2013-02-26 23:53:00
6:53 PM,26.1,17.1,69,30.07,10.0,Calm,Calm,-,N/A,,Clear,0,2013-02-27 00:53:00
7:53 PM,19.9,14.0,78,30.07,10.0,NW,4.6,-,N/A,,Clear,320,2013-02-27 01:53:00
8:53 PM,21.0,15.1,78,30.07,10.0,Calm,Calm,-,N/A,,Clear,0,2013-02-27 02:53:00
9:53 PM,16.0,10.9,81,30.07,10.0,Calm,Calm,-,N/A,,Clear,0,2013-02-27 03:53:00
11:53 PM,16.0,10.0,77,30.04,10.0,Calm,Calm,-,N/A,,Clear,0,2013-02-27 05:53:00